Theta_e
319 321 322 332 337 338 341 341 343 343 342 338 340 346 347 346 347 350 345 343 335 333 327 331 333 335 336 338 339 340 338 340 330 328 330 332 333 332 333 331 329 327 326 325 325 324 324 324 323
318 321 326 331 337 340 340 338 342 343 340 336 336 339 343 346 345 347 346 343 336 334 324 330 334 335 335 336 335 335 337 330 327 328 330 330 330 329 329 329 327 326 325 324 324 325 325 325 325
317 318 327 333 337 339 340 336 338 336 335 328 333 340 344 346 346 347 347 344 337 336 324 326 332 334 334 331 327 328 328 328 327 328 328 328 329 329 328 327 326 325 326 327 327 326 326 325 326
319 322 325 329 333 337 337 335 332 332 328 326 333 340 343 349 350 349 347 345 338 337 333 324 328 330 328 325 325 326 327 327 327 327 328 328 328 327 327 327 326 327 328 332 337 337 332 328 330
321 324 324 327 327 330 334 332 332 333 330 326 338 339 343 351 346 345 348 346 341 337 338 324 325 326 326 325 326 326 327 327 327 327 328 328 327 327 329 328 327 327 332 338 336 335 336 334 334
321 322 324 324 325 326 328 329 330 330 330 326 332 343 346 351 349 349 348 347 342 338 339 324 324 324 325 326 326 326 326 326 326 327 327 327 326 328 331 327 327 329 339 331 322 322 321 331 333
322 323 322 323 323 324 325 325 326 329 328 327 332 348 351 352 352 351 349 348 343 339 338 326 325 325 325 325 326 326 326 326 327 327 326 326 326 329 333 326 326 339 322 315 314 315 317 318 321
321 323 322 323 323 323 324 323 324 325 327 324 336 348 350 352 352 349 350 349 345 341 338 339 327 325 326 326 326 327 327 327 327 328 327 326 326 330 333 325 333 331 317 317 315 316 323 323 321
320 322 322 323 322 323 323 323 323 323 324 325 332 340 348 352 353 351 351 349 347 341 340 340 339 339 337 339 326 326 327 328 328 328 327 326 328 334 334 331 338 322 319 320 321 321 321 322 324
321 322 322 323 322 322 322 323 323 323 323 325 330 333 344 351 352 352 351 348 346 342 340 340 340 340 339 340 340 326 326 326 327 328 327 328 339 340 339 337 334 320 320 320 321 322 320 321 330
321 322 322 321 320 321 322 322 322 322 324 325 328 326 336 346 352 352 350 348 345 344 344 342 343 343 341 341 342 338 340 338 333 331 333 335 338 335 332 341 330 331 322 335 327 326 326 325 328
321 321 321 321 321 321 322 321 322 322 323 325 324 323 323 340 344 349 349 348 346 345 346 345 344 338 341 342 342 342 341 341 340 340 325 336 329 337 341 341 340 340 336 334 331 328 325 326 326
320 320 320 320 321 319 319 320 321 322 322 323 323 323 325 326 341 348 348 348 349 347 347 347 346 340 335 336 344 344 343 342 341 340 335 337 336 339 341 342 342 343 340 334 332 328 326 327 327
318 318 318 319 319 319 320 320 321 322 322 322 323 324 328 338 345 348 349 349 350 350 349 348 348 347 342 336 343 343 335 342 338 339 339 327 335 338 342 344 345 345 345 337 332 328 326 327 327
319 320 320 321 320 321 320 321 322 321 322 323 324 324 324 334 343 346 347 349 350 351 351 350 349 349 338 335 335 340 345 343 342 340 336 328 324 333 337 344 347 348 349 341 332 331 323 327 327
320 320 321 322 320 320 320 321 323 322 322 322 323 324 323 324 325 330 339 345 348 350 351 351 350 349 339 338 337 340 344 341 339 336 338 328 323 324 326 341 345 348 350 340 334 333 327 327 328
321 321 321 321 320 321 321 321 323 321 322 322 323 324 323 323 324 326 325 324 339 346 347 348 348 348 351 347 342 340 337 334 335 335 335 334 326 324 324 335 343 348 348 342 336 333 328 328 328
321 321 320 320 320 320 321 321 322 321 321 322 323 323 323 325 329 331 333 329 321 333 344 345 344 343 345 345 337 336 337 339 337 337 335 333 328 324 324 332 341 343 347 343 336 335 329 328 329
320 319 320 320 320 319 320 320 321 321 321 322 322 323 327 328 329 331 334 337 333 324 343 344 337 343 342 341 340 337 341 338 337 336 335 335 331 326 324 329 338 334 344 342 338 336 324 328 330
320 320 320 319 319 319 321 321 321 322 322 324 326 327 328 329 330 331 332 332 339 339 333 345 340 340 342 345 345 341 340 344 337 335 336 336 329 326 325 324 337 339 344 345 338 337 329 328 330
320 319 319 319 321 321 321 322 322 323 325 326 327 328 330 331 332 333 334 337 339 340 341 337 346 347 343 344 347 344 338 339 341 337 339 340 331 325 324 325 326 336 342 342 339 339 330 327 330
320 319 319 320 321 321 322 320 323 324 326 328 327 329 331 333 334 335 337 340 341 340 342 339 337 347 347 345 346 345 345 341 339 342 344 341 336 326 326 329 325 335 341 342 341 338 333 321 327
320 320 320 321 322 322 323 322 324 324 325 329 330 331 332 333 335 336 338 341 342 342 344 345 343 347 347 346 343 346 346 345 344 340 341 342 339 334 336 337 333 339 341 343 344 339 338 326 324
320 320 321 322 322 323 323 323 322 324 329 330 331 331 331 332 332 333 335 337 339 341 343 345 348 349 348 347 346 343 346 346 345 345 344 344 343 338 335 336 338 342 343 342 344 336 336 322 324
321 322 324 324 322 322 323 323 324 329 329 330 331 330 330 328 329 331 331 332 334 337 340 341 343 345 349 350 348 345 346 345 346 346 347 347 347 344 343 338 340 343 343 342 341 333 331 323 320
321 323 324 325 325 323 323 322 329 327 328 328 328 327 325 324 328 327 325 325 329 331 333 336 337 340 342 345 347 347 347 347 347 347 347 347 347 346 343 340 339 342 343 340 332 331 331 331 325
320 320 319 323 323 324 324 329 328 327 327 326 327 322 321 321 325 323 320 320 325 328 330 331 330 332 334 337 341 345 346 346 346 345 345 346 344 341 341 341 341 341 339 337 332 332 328 325 322
316 317 321 320 324 327 324 325 326 329 327 324 322 321 320 318 318 318 317 318 321 322 324 325 328 328 328 330 334 337 340 343 345 344 344 343 342 342 342 339 338 338 336 332 331 334 326 325 320
318 317 318 320 322 325 326 327 328 325 323 322 320 317 318 318 318 318 318 317 317 317 318 323 326 328 327 328 328 331 336 336 343 341 342 343 342 342 336 333 330 331 328 331 330 332 328 327 322
316 319 320 322 321 320 321 323 322 318 316 315 315 315 315 315 315 316 316 317 318 318 318 318 324 326 326 325 326 328 330 330 337 341 339 341 341 340 336 334 331 326 327 326 328 329 329 325 325
Wind_Speed
8 6 7 5 7 6 5 7 3 7 3 6 2 4 3 10 5 5 5 14 22 26 26 27 26 24 21 20 19 19 18 17 15 14 12 12 11 9 7 6 5 4 3 3 4 4 4 3 4
7 5 5 7 8 8 8 1 4 4 7 5 4 8 8 5 1 4 7 11 22 27 27 28 27 25 22 19 19 19 19 17 15 13 12 11 10 8 6 5 4 3 2 2 1 1 1 2 3
4 3 8 5 8 10 5 3 2 3 5 7 4 4 3 2 1 3 6 13 23 27 29 29 28 26 24 21 20 20 19 18 15 13 12 10 9 7 5 3 2 2 2 1 1 0 0 1 2
3 4 6 10 16 4 4 5 3 4 1 7 6 5 3 4 2 3 6 17 26 27 28 29 28 27 24 22 22 21 19 17 15 13 11 9 8 6 4 2 2 2 1 1 1 1 1 2 3
4 5 10 13 16 13 3 6 7 7 5 8 8 3 3 1 8 4 7 19 26 29 27 29 28 26 25 23 22 21 19 17 15 13 11 9 7 6 4 3 3 2 2 1 2 1 1 2 2
9 7 10 13 15 10 5 9 8 10 3 5 10 5 1 0 0 3 11 20 23 27 26 30 28 26 24 23 22 20 18 17 15 13 11 9 8 6 4 4 4 3 3 4 4 3 4 3 3
14 8 14 15 10 8 7 7 13 8 10 5 11 5 3 2 3 8 14 20 23 25 25 30 29 27 24 22 21 20 18 17 15 14 12 10 9 7 5 4 4 4 4 3 2 2 2 2 2
10 8 15 12 12 11 3 8 5 9 7 7 5 2 7 1 6 10 14 19 22 24 24 25 29 28 26 24 22 20 18 16 15 14 13 12 10 8 5 4 4 4 3 1 1 3 2 2 1
8 8 12 14 9 7 4 6 6 6 12 6 2 4 4 4 7 10 14 18 23 25 26 24 24 24 24 21 24 21 20 18 17 16 15 13 9 8 6 6 6 4 3 1 0 1 2 2 1
13 11 13 2 7 6 4 5 7 9 9 10 5 1 1 7 11 13 16 20 25 27 27 26 25 24 23 21 20 24 22 21 19 18 17 14 11 10 8 8 6 4 4 2 2 1 2 3 2
12 15 7 7 10 7 7 8 8 12 12 13 5 5 4 7 10 13 14 16 21 24 26 27 27 26 24 22 20 21 18 19 20 20 18 15 13 12 10 7 6 4 3 2 3 3 3 2 2
11 14 11 7 8 11 10 8 12 13 16 10 11 12 9 11 11 12 13 14 19 25 27 27 27 30 27 22 21 19 19 17 17 18 20 17 16 13 10 9 8 6 5 6 2 3 5 3 2
16 11 10 12 11 11 11 14 14 14 15 11 9 8 7 11 11 12 12 13 17 23 26 28 26 29 31 30 22 21 20 19 16 16 18 17 15 13 12 11 9 7 6 5 4 3 2 2 2
5 17 11 9 11 10 13 14 10 13 10 12 8 6 7 5 10 11 11 12 15 20 24 25 27 27 28 31 27 23 25 20 21 17 16 21 17 14 12 12 10 8 7 6 5 4 3 2 3
8 10 12 14 14 11 11 14 16 16 8 12 10 7 5 7 6 8 8 9 12 16 20 25 28 28 30 31 32 27 21 21 20 19 20 22 22 19 16 13 11 10 10 8 7 6 5 3 3
11 10 13 7 10 12 11 13 14 8 8 13 13 9 6 4 5 5 7 9 12 15 19 22 23 26 30 29 29 28 24 24 23 23 20 24 24 23 20 15 13 12 11 10 7 5 5 5 5
10 12 11 8 8 5 14 11 8 10 8 10 13 11 7 4 2 4 3 7 12 15 17 19 23 25 25 27 27 26 26 24 26 28 25 24 25 24 24 18 14 15 12 11 10 7 6 7 6
11 13 9 10 8 10 11 12 8 12 10 10 7 7 4 2 6 8 10 9 10 14 17 19 22 25 27 26 29 27 18 12 18 20 28 29 27 26 25 21 17 19 14 14 13 11 8 8 8
6 8 8 6 3 8 13 13 12 12 14 15 8 3 3 7 8 11 12 12 10 8 14 18 20 24 28 30 31 29 32 29 25 26 29 34 29 25 26 21 17 22 18 15 16 13 12 8 10
11 12 12 6 7 9 8 12 12 11 5 2 1 4 7 10 12 13 14 13 14 9 8 15 19 22 26 28 28 29 28 26 29 35 26 23 29 27 25 25 19 20 17 21 19 15 10 10 12
13 13 10 10 8 10 8 13 11 9 10 7 7 6 8 11 15 15 16 15 15 14 11 11 17 20 23 26 26 30 35 36 35 36 37 33 28 29 28 27 25 23 23 18 20 17 16 12 13
15 12 12 10 10 11 13 11 15 15 9 6 7 8 10 12 13 15 16 16 16 15 15 13 12 17 19 22 24 27 28 35 37 35 30 28 27 30 29 28 27 27 24 20 21 19 16 16 14
14 9 13 13 12 13 13 9 8 12 11 4 7 10 12 13 15 16 18 17 17 17 15 12 7 10 14 17 21 21 24 23 26 31 34 33 29 28 28 26 28 28 26 25 25 21 18 17 16
4 9 11 11 12 15 17 13 12 12 8 5 7 10 11 13 15 18 19 19 19 19 18 14 8 6 8 11 16 18 20 19 20 21 18 19 22 26 27 25 29 28 27 27 26 25 21 21 19
11 12 10 12 12 14 15 16 5 7 9 7 7 8 10 11 13 17 20 21 23 24 22 19 17 8 3 7 11 13 16 16 19 21 20 18 17 18 21 28 31 33 29 24 25 25 24 24 25
13 14 12 15 13 13 8 10 6 8 8 9 8 7 9 11 13 15 18 19 20 23 24 22 20 15 13 9 8 10 12 12 13 18 18 19 17 22 23 25 30 32 30 23 21 23 24 19 23
8 11 7 10 9 10 6 7 6 7 7 7 7 6 8 10 10 12 16 18 19 19 20 21 21 19 18 13 10 9 12 14 14 17 20 25 27 26 27 24 23 22 15 19 21 19 19 23 24
3 2 4 4 7 13 11 8 2 12 9 7 5 4 6 7 8 11 14 16 16 16 17 18 18 19 18 17 15 12 8 11 15 20 19 25 22 22 18 15 14 21 21 24 17 23 18 25 24
6 7 5 4 8 6 7 2 7 6 5 0 3 6 7 8 8 10 11 12 14 16 17 17 17 15 16 17 17 16 11 9 7 12 15 16 18 18 18 21 19 28 30 37 31 30 29 25 25
11 12 14 10 15 11 12 5 5 6 4 3 7 7 9 10 10 10 13 14 14 15 17 16 16 15 14 14 16 16 14 11 9 8 11 17 18 23 19 20 24 15 19 24 24 38 29 31 27
Wind_Direction
258 284 312 297 258 235 114 98 103 103 158 20 324 261 245 326 351 34 127 163 167 168 177 175 174 169 172 176 175 174 175 173 166 164 159 153 149 143 143 142 138 129 119 107 102 102 108 120 135
233 276 289 279 260 234 112 64 203 35 45 357 296 259 244 267 291 121 132 161 170 171 178 179 179 173 174 179 178 177 178 171 168 167 164 160 154 150 152 152 139 123 111 94 82 75 109 139 156
212 214 267 268 259 255 93 81 37 324 325 353 331 248 302 106 117 163 180 168 166 172 179 182 179 177 177 178 179 178 178 175 171 172 169 163 157 157 161 158 140 139 145 152 138 158 203 169 163
202 216 235 252 251 197 286 121 21 326 67 356 340 261 206 194 157 163 188 172 169 172 176 182 181 179 179 179 180 181 180 177 176 175 174 169 168 171 171 167 172 182 180 143 111 109 123 146 156
204 240 249 241 250 266 235 284 305 304 325 358 357 5 254 200 222 254 190 174 174 173 174 183 183 183 183 182 184 185 184 182 180 180 182 182 185 186 180 182 203 214 220 265 285 262 214 185 178
213 261 238 240 240 236 264 274 277 283 309 346 338 304 72 336 220 171 166 168 173 173 174 183 186 185 189 188 189 190 190 189 187 187 190 193 198 199 198 204 209 227 259 284 281 253 228 217 209
249 228 249 258 269 266 271 276 262 294 289 20 331 298 64 61 151 142 150 163 170 176 174 184 186 189 192 194 195 197 197 196 197 196 197 201 205 207 211 224 220 243 282 278 257 211 223 227 236
242 261 254 245 251 245 160 256 266 274 300 327 339 14 59 57 145 144 147 160 169 178 178 180 186 190 193 197 201 202 204 205 205 206 205 208 211 216 228 239 236 267 276 280 174 208 220 275 291
218 242 244 238 246 232 171 254 259 278 271 275 286 324 300 185 156 149 150 162 173 181 184 182 183 187 189 194 203 204 207 209 212 213 215 216 215 224 237 231 255 260 245 258 0 213 253 273 282
219 235 251 302 281 249 206 244 281 284 248 260 219 76 37 181 178 175 174 176 180 185 189 188 187 190 189 194 201 205 210 213 214 218 221 215 213 211 202 236 248 236 243 248 299 284 314 11 264
219 250 267 223 249 247 273 261 250 260 261 233 273 305 252 207 199 196 194 198 192 193 193 192 190 191 191 195 197 201 205 209 216 217 219 215 221 228 225 224 221 225 247 306 318 328 349 253 195
251 237 248 247 230 250 252 277 258 248 255 275 288 291 261 223 215 208 210 206 202 199 198 199 198 203 196 198 202 202 203 210 214 220 225 218 222 224 212 212 212 209 232 229 229 276 276 251 220
235 250 245 244 242 248 259 252 255 253 252 262 281 291 259 234 217 212 219 220 206 207 205 204 203 209 210 207 206 205 207 214 218 222 228 220 222 226 223 219 214 219 230 247 256 247 282 249 237
230 239 242 238 238 232 244 248 235 244 238 260 260 261 239 223 206 206 214 214 208 206 208 205 208 212 211 215 212 215 221 217 222 224 226 232 228 231 225 227 226 230 235 239 242 255 257 251 242
228 238 222 234 237 234 232 246 230 244 251 249 247 254 252 228 218 221 230 232 221 219 212 209 209 212 219 225 226 221 220 221 227 228 233 238 237 233 225 231 235 244 239 231 237 274 267 252 248
228 239 248 189 218 222 220 246 205 191 242 248 241 251 263 262 260 250 248 242 231 219 220 215 212 215 226 224 230 226 226 230 234 239 235 244 243 237 238 231 237 243 236 237 231 240 244 238 233
205 249 214 164 207 190 212 246 174 200 234 250 254 251 262 283 17 13 321 262 247 236 226 228 226 218 219 222 225 227 232 242 251 250 246 244 246 243 239 233 233 235 238 234 235 241 234 237 213
226 220 225 250 160 224 214 246 235 232 233 237 244 253 276 343 26 10 358 323 267 238 236 228 231 231 226 227 234 228 221 225 252 255 252 245 244 243 242 234 231 240 236 239 238 239 242 228 223
261 259 254 235 237 252 247 253 245 228 225 232 214 218 335 348 4 1 2 3 342 264 237 232 234 233 229 232 231 229 215 211 209 222 254 239 240 239 242 236 238 244 237 235 241 255 251 233 220
233 237 240 255 230 222 225 242 234 222 191 139 187 40 359 346 352 358 356 353 357 341 255 242 236 236 236 233 231 227 227 226 223 213 243 245 242 242 245 245 235 244 232 243 243 250 232 230 219
228 236 230 255 163 236 257 240 213 137 145 115 66 40 16 -0 351 355 356 356 350 345 327 262 243 231 235 230 235 234 229 229 226 231 244 247 246 244 245 248 239 242 235 238 242 251 248 236 234
237 213 242 225 225 244 196 259 184 163 147 93 49 33 20 13 9 5 4 2 357 344 337 313 251 240 233 232 229 236 231 234 235 239 249 253 248 243 242 244 245 241 237 228 243 248 249 231 235
252 224 222 233 242 257 203 252 197 154 166 71 54 49 41 33 30 25 19 13 4 3 356 350 303 246 236 234 228 235 237 240 241 242 247 252 251 245 242 240 241 238 237 240 242 248 256 238 230
251 225 236 241 246 237 238 213 238 182 112 107 81 63 53 45 38 36 34 26 21 15 15 9 3 306 269 248 244 235 236 238 233 236 239 231 243 240 236 234 233 233 236 239 245 246 255 243 238
219 225 227 221 226 242 239 223 239 87 95 99 95 80 60 46 38 35 33 31 27 25 24 24 20 1 333 276 253 252 242 241 237 230 238 228 229 217 223 224 227 232 234 231 239 246 252 250 246
219 242 247 254 246 235 146 218 114 114 118 110 98 77 60 47 47 42 29 24 25 26 28 28 26 23 8 339 283 264 251 245 245 235 225 226 220 209 220 223 228 232 236 232 236 246 257 251 251
184 230 352 289 276 279 217 117 147 151 147 150 126 83 56 44 46 28 20 19 21 23 21 23 24 22 20 12 344 295 269 250 242 232 235 220 224 242 243 244 236 237 254 255 236 254 253 249 253
295 72 222 229 270 262 259 255 210 174 152 138 119 66 38 26 23 20 18 14 13 12 12 11 14 15 16 16 4 347 318 275 266 255 249 249 247 245 244 222 246 247 257 278 267 242 253 256 250
180 196 229 267 229 245 263 259 13 125 100 207 41 14 1 336 335 342 350 356 356 358 355 353 357 6 7 2 360 5 343 320 289 260 250 236 232 218 235 255 259 256 267 268 241 221 236 242 246
264 269 278 249 231 239 259 243 131 121 109 66 61 40 31 15 358 345 330 328 329 331 340 350 352 350 354 358 357 357 358 349 324 286 238 221 230 231 247 239 241 248 244 262 242 233 224 228 239